Temperature
30 31 31 31 31 32 31 31 31 31 32 32 32 31 30 29 29 28 28 27 26 25 25 24 23 22 22 21 21 20 20 20 19 19 19 19 19 18 18 18 18 18 17 17
28 30 30 30 31 31 31 32 32 32 31 32 32 31 29 29 28 28 28 27 26 25 24 23 23 22 22 21 21 20 20 20 19 19 19 19 18 18 18 18 18 17 17 17
27 29 29 29 30 31 31 32 32 31 31 32 31 30 29 28 27 27 27 26 25 25 24 23 22 22 21 21 21 20 20 19 19 19 18 18 18 18 18 17 17 17 17 17
27 27 26 29 32 32 31 31 32 31 31 31 30 29 28 27 26 26 26 26 25 24 24 23 22 22 21 21 20 20 19 19 19 19 18 18 18 18 17 17 17 17 17 17
26 26 27 29 30 31 30 30 31 30 30 30 29 29 27 26 26 25 25 24 24 24 23 23 22 21 21 21 20 20 19 19 19 19 18 18 18 18 17 17 17 17 16 16
25 25 26 28 30 31 30 28 30 29 29 29 29 28 27 26 25 24 24 23 23 23 23 22 21 21 21 20 20 19 19 19 19 18 18 18 18 17 17 17 17 16 16 16
24 25 26 28 30 30 27 27 28 28 28 27 27 27 26 25 24 23 23 23 22 22 22 22 21 21 20 20 20 19 19 19 18 18 18 18 17 17 17 17 16 16 16 15
24 24 25 27 28 27 26 26 26 27 26 26 25 25 24 24 23 22 22 22 21 21 21 21 21 20 20 20 20 19 19 19 18 18 18 17 17 17 17 16 16 16 15 15
24 24 25 25 25 25 25 25 25 26 25 25 24 24 23 23 22 22 21 21 20 20 20 20 20 20 20 19 19 19 19 18 18 17 17 17 17 17 16 16 16 15 15 15
24 24 25 25 24 24 24 24 24 24 24 24 24 23 22 22 21 21 20 20 19 19 19 19 19 19 19 19 18 18 18 18 17 17 17 17 16 16 16 16 16 15 15 15
23 23 24 24 24 24 23 24 24 23 23 23 23 22 22 21 20 20 19 19 19 19 18 19 19 19 19 18 18 18 17 17 17 17 16 16 16 16 16 16 16 15 15 15
22 22 23 23 22 22 22 23 22 22 22 22 22 21 21 20 19 19 19 18 18 18 18 18 18 18 18 18 18 17 17 17 16 16 16 16 16 15 15 15 15 15 15 15
21 21 21 21 22 22 21 21 21 21 21 21 21 20 20 19 19 18 18 18 17 17 17 17 17 17 17 17 17 17 16 16 16 16 15 15 15 15 15 15 15 15 14 14
20 20 20 21 21 21 21 21 20 20 20 20 20 19 19 18 18 17 17 17 17 17 17 17 17 17 17 17 16 16 16 16 16 15 15 15 15 15 15 14 14 14 14 14
19 19 20 20 20 20 20 20 20 19 19 19 19 18 18 17 17 17 17 17 16 16 16 16 16 16 16 16 16 16 16 15 15 15 15 15 15 14 14 14 14 14 14 13
19 19 19 19 19 19 19 19 19 19 19 18 18 18 17 17 17 16 16 16 16 16 16 16 16 16 16 16 16 15 15 15 15 15 15 15 14 14 14 14 13 13 13 13
18 19 19 18 18 19 19 19 18 18 18 18 17 17 16 16 16 16 16 16 16 16 16 16 16 16 15 15 15 15 15 15 15 15 15 15 14 14 14 14 13 13 13 13
18 18 18 18 18 18 18 18 18 17 17 17 17 16 16 16 15 15 15 15 15 15 15 15 15 15 15 15 15 15 15 15 14 14 14 14 14 14 13 13 13 13 13 13
18 18 17 17 17 17 17 17 17 17 17 16 16 16 16 15 15 15 15 15 15 15 15 15 15 15 15 15 15 14 14 14 14 14 14 14 13 13 13 13 13 12 12 12
17 17 17 17 17 17 16 16 16 16 16 16 15 15 15 15 15 14 14 14 14 15 15 15 14 14 14 14 14 14 14 14 14 14 13 13 13 13 13 12 12 12 12 12
16 16 16 16 16 16 15 15 15 15 15 15 15 15 14 14 14 14 14 14 14 14 14 14 14 14 14 14 14 14 14 13 13 13 13 13 12 12 12 12 12 12 12 12
15 15 15 15 15 15 15 15 15 15 15 15 15 14 14 14 14 14 14 14 14 14 14 14 14 14 14 14 14 13 13 13 13 13 13 12 12 12 12 12 12 12 11 11
14 14 14 14 14 14 14 14 14 14 14 14 14 14 14 14 14 14 13 13 13 14 14 14 14 14 14 14 13 13 13 13 13 12 12 12 12 12 12 12 12 11 11 11
13 13 13 13 13 13 13 14 14 14 14 14 14 13 13 13 13 13 13 13 13 13 14 13 13 13 13 13 13 13 13 13 12 12 12 12 12 12 12 12 12 11 11 11
12 13 13 13 13 13 13 13 13 13 13 13 13 13 13 13 13 13 13 13 13 13 13 13 13 13 13 13 13 13 13 13 12 12 12 12 12 12 12 11 11 11 11 10
12 13 13 13 13 13 13 13 13 13 13 13 13 13 13 13 13 13 13 13 13 13 13 13 13 13 13 13 13 13 12 12 12 12 12 12 12 12 11 11 11 11 10 10
12 13 13 13 13 13 13 13 13 12 12 12 12 12 12 12 13 13 13 13 13 13 13 13 13 12 12 12 12 12 12 12 12 12 12 12 11 11 11 11 11 10 10 10
Wind_Speed
15 14 12 12 14 15 16 15 13 11 10 6 5 5 6 6 5 5 7 8 9 8 8 9 10 9 9 9 9 9 8 8 7 6 5 5 4 4 4 4 4 4 4 3
16 16 15 15 15 16 16 16 15 13 10 5 4 4 5 4 5 5 5 6 8 9 9 8 9 10 10 9 9 9 9 8 7 7 6 5 5 5 5 4 4 4 5 4
14 14 14 17 16 16 15 15 13 13 9 5 3 3 5 5 3 3 4 5 5 7 9 8 8 8 9 9 9 9 8 8 8 8 7 6 6 5 6 5 5 5 5 5
13 13 17 12 11 13 14 12 11 9 6 3 3 3 4 4 3 2 2 3 4 6 8 9 8 9 9 9 10 9 9 9 8 8 7 6 5 5 6 5 5 5 5 5
11 15 16 13 11 11 11 10 7 6 4 3 2 3 4 3 2 1 1 1 2 5 6 8 9 9 9 9 10 10 10 9 9 9 8 7 6 6 6 6 5 5 6 5
11 14 14 11 9 8 9 9 4 3 2 2 2 5 3 3 2 2 1 1 1 3 6 7 8 9 9 9 9 10 10 9 9 8 8 8 7 6 6 6 6 6 6 5
15 15 11 8 6 7 10 4 1 1 0 1 1 2 3 4 4 3 2 2 1 2 5 6 7 8 8 8 8 8 9 9 9 8 7 7 6 5 6 6 6 6 6 6
14 16 11 4 6 5 1 3 3 2 1 1 2 2 3 3 4 3 2 1 1 2 3 5 7 8 7 7 7 7 8 9 9 9 8 8 7 6 6 7 7 7 7 7
8 8 1 3 1 3 3 2 2 2 2 1 1 1 1 2 2 1 1 1 0 2 3 4 6 7 8 6 6 7 8 8 8 8 7 8 8 8 7 7 7 7 7 7
7 6 4 2 1 1 1 1 3 2 3 3 2 1 2 2 1 1 1 1 0 1 2 4 5 6 6 7 7 8 8 8 8 8 7 7 5 6 6 6 6 6 6 6
9 7 6 4 3 3 3 3 3 3 3 4 2 2 1 2 2 2 1 1 1 2 2 3 4 5 6 7 7 8 8 8 8 8 8 6 5 2 3 2 2 4 4 5
7 4 5 4 3 3 4 4 4 4 4 4 4 3 2 2 2 2 2 2 2 2 3 3 4 5 5 6 8 8 8 8 8 8 7 8 7 6 9 7 9 9 8 7
5 6 6 5 5 5 4 5 5 5 5 4 4 3 3 2 2 2 2 3 3 3 3 3 4 4 4 5 6 7 7 7 7 8 8 8 8 8 6 6 10 10 10 11
5 6 6 6 5 5 5 6 5 5 5 4 4 3 3 2 3 3 3 3 4 4 4 4 5 5 5 6 6 6 7 7 7 6 7 8 7 8 8 8 7 5 6 9
7 7 7 6 6 6 6 6 6 6 5 4 3 4 4 4 4 3 3 3 4 4 4 5 5 5 5 6 6 6 6 5 6 6 6 6 6 6 7 7 7 7 6 6
8 9 7 6 7 7 7 7 7 6 5 5 4 4 4 4 4 3 3 3 4 4 4 4 4 4 5 6 6 5 5 7 6 6 6 6 6 7 7 8 7 7 7 7
9 8 8 8 8 9 8 7 7 7 6 5 4 4 4 5 4 3 3 3 3 3 3 4 4 4 5 6 6 5 5 6 7 6 6 6 6 6 7 7 7 7 6 8
9 9 9 9 8 8 8 7 7 6 6 5 4 5 5 6 5 5 5 4 3 3 3 3 3 4 5 5 5 5 5 6 6 6 5 5 5 5 7 7 8 8 7 7
9 8 8 8 8 7 7 7 6 5 5 4 4 4 4 4 4 4 4 4 4 4 3 3 4 4 4 5 5 4 5 6 7 6 5 6 6 6 6 6 7 7 7 8
7 7 7 8 7 6 6 5 5 4 4 3 4 4 4 4 4 4 4 3 2 3 3 4 4 4 4 5 6 5 6 6 7 7 7 7 6 6 6 6 6 6 6 7
6 6 6 6 6 6 6 5 5 4 3 3 4 5 4 4 4 4 4 3 2 3 3 5 5 4 4 5 7 6 6 6 6 6 6 6 7 6 6 6 6 6 6 6
5 4 5 5 5 5 4 4 4 4 4 4 5 5 5 5 4 4 3 3 3 3 3 4 4 5 5 6 6 6 7 7 6 6 6 6 6 7 6 6 6 6 6 6
4 4 4 3 3 3 3 3 3 4 4 4 4 5 4 3 3 4 3 3 3 3 3 3 4 5 6 6 6 6 7 7 6 6 5 5 6 6 6 6 6 6 5 5
3 4 4 2 2 1 1 2 1 2 3 3 3 4 4 3 2 2 3 4 4 5 3 3 6 6 6 5 6 6 6 6 6 6 6 6 6 6 6 6 6 5 5 6
3 3 3 2 1 0 1 1 1 2 2 2 2 3 3 3 3 3 3 4 5 6 4 5 8 8 6 5 6 5 6 6 6 6 6 6 6 6 6 6 6 5 6 6
3 2 2 1 1 1 2 2 2 2 2 2 2 2 2 2 2 2 2 4 5 6 5 4 6 7 6 6 6 6 6 6 6 6 6 6 6 6 6 7 7 6 6 5
2 2 1 0 1 1 1 2 2 2 2 2 2 2 2 2 2 3 3 3 4 5 4 4 5 6 6 6 6 6 6 6 6 6 6 6 6 6 6 7 6 6 6 6
Wind_Direction
259 264 258 244 235 232 235 245 252 254 246 207 168 150 136 132 150 162 159 161 154 153 152 155 155 154 155 157 154 152 152 153 149 147 144 141 137 130 130 137 135 121 114 104
253 255 258 255 245 239 237 237 246 256 261 257 177 147 131 147 171 180 177 171 164 158 156 159 162 163 161 157 156 155 157 156 151 152 153 152 148 141 138 132 121 114 107 99
251 247 252 247 242 240 241 240 240 246 250 238 206 158 149 145 165 190 190 169 168 166 162 168 167 163 163 159 157 159 161 159 159 157 158 161 162 149 145 139 129 122 120 109
248 250 244 243 245 240 240 242 247 245 243 240 212 159 140 141 154 175 173 179 167 169 164 168 166 164 164 164 164 165 166 165 165 164 162 154 149 146 145 140 136 133 129 124
243 242 244 241 242 244 241 241 247 263 258 236 224 182 162 127 109 145 145 102 157 169 168 166 167 166 166 171 173 173 173 172 170 167 162 158 153 149 148 146 143 142 137 133
241 242 242 239 240 246 242 233 235 254 258 259 245 230 189 123 115 111 76 66 122 176 170 165 165 166 171 178 180 180 177 171 167 165 165 162 156 153 153 152 150 146 134 128
241 246 245 263 250 226 229 227 40 300 315 281 311 346 61 73 77 94 104 97 109 160 164 166 163 170 177 181 184 178 168 161 161 162 163 158 154 156 157 154 144 135 131 124
233 244 241 276 245 230 126 49 36 10 318 28 30 41 55 65 80 85 85 95 122 150 170 167 168 174 183 186 176 167 164 162 164 165 172 166 158 158 157 149 147 148 142 134
227 238 230 8 27 80 68 12 335 327 311 305 274 159 110 81 87 103 100 76 218 182 180 172 176 179 186 181 166 165 165 166 165 163 162 159 161 163 164 166 171 165 159 154
245 230 232 236 300 15 313 284 299 306 299 299 262 208 178 152 144 147 143 161 205 185 198 182 178 183 181 175 171 167 167 166 163 160 162 156 160 165 171 175 175 168 163 157
246 245 246 247 268 287 300 303 299 305 302 304 288 256 205 177 176 185 197 205 202 187 196 192 175 173 174 171 168 169 167 166 168 170 165 156 146 123 156 127 148 156 153 145
248 261 259 252 260 280 280 281 286 292 290 288 278 267 240 209 190 201 201 213 213 202 199 199 170 160 167 170 170 171 174 176 176 175 167 162 147 116 63 80 87 91 103 119
285 284 282 291 289 286 286 288 284 278 274 272 270 260 241 206 197 204 209 211 213 213 203 193 170 160 164 167 172 177 180 180 180 175 171 169 163 157 143 96 79 83 99 110
294 290 277 271 279 291 288 284 283 281 275 269 254 239 220 206 217 221 228 225 218 211 205 190 175 172 168 168 173 182 186 184 184 179 173 173 171 170 164 158 145 121 102 120
275 275 272 272 275 277 273 268 267 268 264 260 240 221 208 206 213 219 226 225 212 207 206 194 179 176 169 172 178 188 191 186 182 178 175 171 165 165 162 158 154 150 140 134
269 272 270 264 264 267 262 254 253 256 253 251 242 222 213 210 207 204 211 214 206 203 192 183 175 173 172 173 176 183 183 174 173 173 171 167 167 170 165 160 160 162 160 157
263 266 272 273 269 268 266 260 254 254 251 248 242 223 210 207 202 201 203 190 179 177 181 181 184 183 179 178 179 183 177 168 168 172 170 169 170 169 161 161 163 165 163 158
263 263 264 264 267 276 277 271 262 253 244 239 237 215 207 203 205 203 188 178 175 179 193 191 181 182 181 180 180 180 172 167 169 173 168 165 168 168 166 165 166 164 155 153
258 262 270 274 275 276 271 270 269 259 245 235 231 213 200 193 189 185 173 176 180 191 199 181 168 169 169 167 169 169 163 161 160 163 165 162 167 172 171 165 161 161 160 157
273 271 275 281 280 275 273 268 259 252 239 219 203 186 182 182 173 167 164 178 202 213 180 161 160 165 166 162 164 169 165 161 162 165 168 170 167 165 166 164 163 164 164 162
284 281 278 281 283 277 265 255 242 235 216 196 175 173 176 180 171 164 170 196 195 194 188 166 170 175 172 163 163 168 163 158 158 159 162 164 164 166 168 167 166 170 172 167
301 296 293 291 283 275 267 250 223 210 194 177 173 175 178 177 170 165 179 203 205 213 207 184 176 171 168 166 164 164 161 158 157 159 166 167 166 167 170 169 169 173 172 170
321 317 313 312 295 282 279 249 208 191 181 179 178 183 186 173 179 177 191 205 198 180 183 176 165 154 154 172 168 166 163 163 163 164 168 170 170 170 170 170 170 171 170 167
331 334 328 325 313 291 265 255 210 160 156 165 173 169 163 161 160 184 193 191 184 165 177 164 153 155 169 182 178 172 168 168 167 169 171 173 174 173 170 168 168 167 169 169
326 328 325 329 326 273 174 162 123 130 138 141 157 160 169 171 177 186 185 177 175 167 179 167 163 170 184 187 174 170 169 171 172 170 172 172 171 168 167 165 167 170 174 174
300 284 281 280 244 187 172 172 178 168 152 142 142 143 148 147 158 179 175 167 171 171 180 172 172 179 186 181 175 172 172 171 172 176 177 172 172 172 169 170 172 175 174 172
318 318 330 302 243 225 196 158 154 152 148 149 148 156 160 168 182 179 183 177 165 168 176 179 175 172 173 171 171 173 176 178 177 176 173 171 171 171 170 171 173 170 172 175
Height
1470 1465 1464 1467 1468 1468 1472 1474 1481 1478 1474 1471 1472 1475 1479 1483 1487 1490 1493 1496 1499 1502 1506 1509 1512 1515 1518 1520 1522 1524 1525 1527 1528 1529 1531 1531 1532 1533 1533 1534 1535 1535 1536 1537
1475 1467 1465 1467 1465 1466 1467 1468 1471 1472 1473 1467 1470 1474 1479 1483 1487 1490 1492 1495 1498 1501 1504 1507 1510 1513 1516 1518 1520 1522 1524 1525 1527 1528 1529 1530 1531 1531 1532 1533 1534 1535 1536 1536
1481 1471 1470 1476 1465 1464 1465 1463 1467 1474 1472 1468 1471 1475 1479 1484 1488 1490 1492 1494 1497 1500 1502 1505 1508 1511 1514 1516 1518 1520 1522 1524 1525 1526 1527 1528 1529 1530 1530 1531 1533 1534 1535 1536
1481 1481 1491 1469 1454 1455 1460 1461 1462 1464 1466 1469 1472 1476 1480 1484 1487 1489 1492 1494 1496 1499 1501 1503 1506 1509 1512 1514 1516 1518 1520 1522 1523 1525 1526 1527 1527 1528 1528 1530 1532 1533 1534 1536
1483 1485 1478 1464 1456 1456 1462 1465 1462 1465 1466 1469 1472 1475 1480 1483 1486 1489 1491 1493 1495 1497 1499 1502 1504 1506 1509 1511 1513 1516 1517 1519 1521 1522 1524 1525 1526 1526 1528 1529 1531 1532 1533 1535
1483 1486 1484 1467 1455 1455 1460 1470 1464 1466 1469 1470 1472 1476 1480 1482 1484 1488 1490 1492 1493 1496 1498 1499 1501 1503 1505 1508 1510 1512 1514 1517 1518 1520 1521 1523 1524 1525 1527 1528 1530 1531 1533 1534
1483 1482 1471 1459 1455 1457 1473 1474 1468 1468 1471 1473 1475 1478 1481 1482 1484 1487 1489 1490 1492 1494 1495 1497 1499 1501 1502 1505 1507 1509 1512 1514 1516 1517 1519 1521 1522 1523 1525 1527 1528 1530 1532 1533
1480 1483 1476 1460 1458 1464 1468 1468 1469 1471 1472 1474 1477 1479 1480 1482 1484 1486 1488 1489 1491 1492 1493 1495 1496 1498 1500 1502 1504 1507 1509 1511 1513 1515 1517 1519 1520 1521 1523 1525 1527 1529 1530 1531
1472 1472 1466 1464 1464 1466 1468 1470 1471 1472 1474 1475 1477 1479 1481 1482 1484 1486 1487 1488 1489 1490 1491 1493 1494 1496 1498 1500 1502 1504 1506 1508 1511 1513 1515 1517 1518 1519 1521 1523 1525 1527 1528 1530
1466 1464 1465 1465 1466 1467 1469 1471 1472 1473 1475 1476 1477 1478 1480 1482 1484 1485 1486 1487 1487 1488 1489 1490 1492 1494 1495 1497 1499 1501 1503 1505 1508 1510 1512 1514 1516 1518 1520 1522 1523 1525 1527 1528
1464 1465 1465 1466 1467 1468 1469 1471 1472 1473 1474 1475 1476 1477 1479 1480 1482 1483 1484 1485 1486 1486 1487 1488 1489 1491 1493 1495 1497 1498 1501 1503 1505 1507 1510 1512 1514 1516 1518 1520 1522 1523 1525 1526
1464 1465 1466 1467 1467 1468 1470 1471 1471 1473 1473 1474 1476 1476 1477 1478 1480 1481 1482 1483 1483 1484 1484 1485 1487 1488 1489 1491 1494 1496 1497 1500 1502 1505 1507 1509 1511 1513 1515 1518 1520 1522 1524 1525
1463 1464 1465 1466 1467 1468 1469 1469 1470 1471 1472 1473 1474 1474 1475 1476 1477 1478 1479 1480 1481 1481 1482 1483 1484 1485 1487 1489 1491 1493 1495 1497 1500 1502 1504 1506 1508 1510 1512 1515 1517 1519 1521 1523
1464 1465 1465 1465 1466 1467 1468 1468 1469 1469 1470 1471 1471 1472 1473 1473 1474 1476 1477 1477 1478 1479 1480 1481 1481 1482 1484 1485 1487 1490 1493 1495 1497 1499 1501 1503 1505 1508 1510 1512 1514 1516 1518 1520
1462 1463 1463 1464 1465 1465 1466 1466 1467 1467 1468 1468 1468 1469 1470 1471 1472 1472 1473 1474 1475 1476 1477 1478 1478 1479 1480 1482 1485 1487 1490 1492 1494 1497 1499 1501 1504 1506 1508 1510 1512 1514 1516 1518
1460 1460 1461 1461 1462 1463 1463 1464 1464 1464 1464 1465 1465 1466 1467 1468 1469 1470 1470 1471 1472 1473 1474 1475 1476 1476 1478 1479 1482 1485 1487 1490 1492 1494 1497 1499 1501 1503 1505 1507 1510 1512 1513 1515
1458 1458 1459 1459 1459 1460 1460 1460 1460 1460 1460 1461 1462 1462 1463 1464 1465 1466 1468 1469 1470 1470 1471 1472 1473 1475 1476 1477 1479 1482 1484 1486 1489 1491 1494 1496 1498 1500 1503 1505 1507 1510 1512 1513
1456 1456 1456 1456 1456 1456 1455 1455 1454 1455 1456 1457 1458 1459 1460 1461 1462 1463 1465 1466 1467 1468 1469 1470 1471 1472 1474 1475 1477 1479 1481 1483 1486 1489 1491 1493 1495 1498 1500 1502 1505 1508 1510 1512
1451 1452 1453 1453 1452 1452 1452 1451 1450 1451 1452 1454 1455 1456 1457 1457 1459 1460 1461 1463 1464 1465 1466 1468 1469 1470 1472 1473 1475 1477 1479 1481 1483 1486 1489 1491 1494 1496 1499 1501 1503 1506 1508 1510
1449 1449 1449 1448 1448 1448 1448 1448 1448 1448 1450 1451 1452 1453 1454 1455 1457 1458 1459 1461 1462 1463 1465 1466 1467 1469 1470 1472 1474 1476 1478 1480 1482 1484 1487 1489 1492 1494 1497 1499 1502 1505 1507 1509
1446 1446 1445 1445 1444 1444 1444 1445 1445 1446 1447 1448 1449 1451 1452 1453 1454 1456 1457 1458 1460 1462 1464 1465 1466 1467 1469 1470 1472 1474 1477 1478 1480 1482 1485 1488 1490 1493 1495 1498 1500 1503 1505 1507
1443 1443 1442 1441 1441 1440 1441 1441 1442 1444 1445 1446 1448 1449 1450 1451 1452 1453 1455 1457 1458 1460 1461 1463 1464 1466 1467 1469 1471 1473 1475 1477 1479 1482 1484 1486 1488 1491 1494 1496 1498 1501 1503 1506
1441 1440 1439 1438 1438 1438 1438 1439 1440 1442 1443 1444 1446 1447 1447 1448 1450 1452 1454 1456 1457 1458 1460 1462 1463 1465 1466 1468 1470 1472 1474 1476 1478 1480 1482 1485 1487 1490 1492 1494 1497 1499 1501 1503
1439 1438 1437 1436 1437 1436 1436 1437 1439 1439 1441 1442 1444 1445 1446 1447 1449 1451 1452 1454 1455 1456 1458 1459 1461 1463 1465 1467 1469 1471 1473 1475 1477 1479 1481 1484 1486 1488 1490 1492 1495 1497 1499 1501
1438 1437 1436 1435 1435 1435 1436 1436 1437 1439 1440 1441 1443 1444 1445 1447 1448 1449 1450 1451 1452 1453 1455 1456 1459 1461 1463 1466 1468 1470 1472 1474 1476 1478 1480 1482 1484 1486 1488 1490 1492 1494 1496 1498
1436 1436 1435 1435 1435 1435 1435 1436 1436 1438 1439 1440 1442 1443 1445 1446 1446 1447 1448 1449 1450 1451 1453 1455 1457 1459 1461 1464 1466 1468 1470 1472 1474 1476 1479 1481 1483 1484 1486 1488 1490 1492 1494 1496
1436 1435 1435 1434 1434 1435 1435 1435 1436 1437 1438 1439 1441 1442 1443 1444 1445 1446 1447 1448 1449 1450 1452 1453 1455 1457 1459 1462 1464 1466 1468 1471 1473 1475 1477 1479 1481 1482 1484 1486 1488 1490 1492 1495